Regional Weather Roundup
Issued by NWS Newport/Morehead, NC

Current Version | Previous Version | Text Only | Print | Product List | Glossary On
Versions: 1 2 3 4 5 6 7 8 9 10 11 12 13 14 15 16 17 18 19 20 21 22 23 24 25 26 27 28 29 30 31 32 33 34 35 36 37 38 39 40 41 42 43 44 45 46 47 48 49 50
000 ASUS42 KMHX 291810 RWRMHX WEATHER ROUNDUP FOR EASTERN NORTH CAROLINA NATIONAL WEATHER SERVICE NEWPORT/MOREHEAD CITY NC 200 PM EDT TUE JUL 29 2014 NOTE: "FAIR" INDICATES FEW OR NO CLOUDS BELOW 12,000 FEET WITH NO SIGNIFICANT WEATHER AND/OR OBSTRUCTIONS TO VISIBILITY NCZ015>017-031-032-045>047-102-103-291900- NORTH COAST CITY SKY/WX TMP DP RH WIND PRES REMARKS EDENTON MOSUNNY 80 62 54 N10 29.93S ELIZABETH CITY PTSUNNY 79 63 57 N6 29.93R KITTY HAWK CLEAR 78 65 63 NE8 29.92S MANTEO NOT AVBL $$ NCZ045>047-081-094-103-104-291900- CENTRAL COAST CITY SKY/WX TMP DP RH WIND PRES REMARKS FRISCO PTSUNNY 82 67 60 NE9 29.92S SWANQUARTER N/A 82 N/A N/A N1G8 29.88S $$ NCZ095-097-098-100-101-291900- SOUTHERN COAST CITY SKY/WX TMP DP RH WIND PRES REMARKS BEAUFORT MOSUNNY 83 68 60 N9 29.91S CEDAR ISLAND N/A 81 N/A N/A N2G9 29.97S JACKSONVILLE MOSUNNY 83 64 52 NW7 29.91S NEWPORT NOT AVBL PINEY ISLAND NOT AVBL WILMINGTON PTSUNNY 85 65 51 NE5 29.90F $$ NCZ011>013-027>030-043-044-078>080-089-090>093-098-291900- COASTAL PLAIN CITY SKY/WX TMP DP RH WIND PRES REMARKS AHOSKIE SUNNY 77 56 47 N7 29.94F CLINTON SUNNY 82 63 52 W6 29.93S ELIZABETHTOWN SUNNY 83 61 47 NW5 29.92F GOLDSBORO SUNNY 80 64 56 N7 29.91F GREENVILLE SUNNY 81 61 50 NE8 29.95F HAVELOCK MOSUNNY 83 67 58 NE8 29.92S KENANSVILLE SUNNY 81 58 44 W5 29.93F KINSTON SUNNY 81 61 50 N7 29.94S NEW BERN MOSUNNY 85 63 47 VRB3 29.92F RICHLANDS SUNNY 82 63 51 NW7 29.91F ROANOKE RAPIDS NOT AVBL ROCKY MOUNT SUNNY 81 54 39 N6 29.94F WASHINGTON SUNNY 79 62 56 N5 29.93S WHITEVILLE SUNNY 83 64 51 W5 29.91F $$ AMZ130-135-150-152-154-156-158-170-250-252-270-ANZ085-086-088-633-658-670-291900- MARINE OBSERVATIONS STATION/POSITION TIME TEMP WIND PRES WAVE SWELL AIR SEA DIR/SP/G HT/PER HT/PER (UTC) (F) (DEG/KT/KT) (MB) (FT/S) (FT/S) CHESAPEAKE LIGHT NOT AVBL BUOY 44014 1800 74 78 350/ 8/ 12 1013.1 3/ 7 2/ 7 DUCK 1800 73 71 20/ 11/ 12 1012.8 2E DUCK 1800 N/A 2/ 4 OREGON INLET 1800 76 78 20/ 10/ 12 1013.2 BUOY 44095 1800 79 N/A 3/ 8 20E OREGON INLET NOT AVBL HATTERAS CG 1800 78 80 20/ 8/ 11 1013.4 DIAMOND BUOY 1700 VRB 14/ 16 1012.3 4/ 8 3/ 8 CAPE LOOKOUT 1700 78 40/ 12/ 14 1012.8 BEAUFORT LAB 1800 80 81 10/ 8/ 11 1012.4 30 SE NEW RIVER 1800 79 81 40/ 12/ 14 1012.8 4/ 7 3/ 7 5 SE WRIGHTSVILL 1700 76 82 50/ 6/ 8 N/A BUOY 41002 1658 79 81 180/ 17/ 19 1013.7 6/ 8 3/ 8 BUOY 41004 1800 81 84 20/ 10/ 12 1011.8 4/ 6 3/ 6 $$

USA.gov is the U.S. government's official web portal to all federal, state and local government web resources and services.